Overview Statistics Trail Chart Weather Telemetry Raw packets
 

This is the latest recevied weather packets stored in our database for station/object N7IGG. If no packets are shown the sender has not sent any weather packets the latest 10 day(s).

<< 102 103 104 105 106 107 108 >>
Time Temp. Humidity Pressure Rain* Wind** Luminosity Snow
1777424003 12.78° C 74% 1022.8 hPa 0 mm - 46 W/m² -
1777423700 12.78° C 74% 1023.1 hPa 0 mm - 51 W/m² -
1777423396 12.78° C 73% 1023.1 hPa 0 mm - 59 W/m² -
1777423090 12.78° C 75% 1022.9 hPa 0 mm - 67 W/m² -
1777422785 12.78° C 73% 1022.8 hPa 0 mm - 77 W/m² -
1777422481 12.78° C 73% 1022.9 hPa 0 mm - 87 W/m² -
1777422176 12.78° C 73% 1022.7 hPa 0 mm - 88 W/m² -
1777421876 12.78° C 72% 1022.6 hPa 0 mm - 95 W/m² -
1777421577 12.78° C 72% 1022.7 hPa 0 mm - 102 W/m² -
1777421273 12.78° C 72% 1022.7 hPa 0 mm - 110 W/m² -
1777420969 13.33° C 72% 1022.7 hPa 0 mm - 121 W/m² -
1777420666 13.33° C 71% 1022.6 hPa 0 mm - 136 W/m² -
1777420362 12.78° C 71% 1022.8 hPa 0 mm - 138 W/m² -
1777420057 12.78° C 71% 1022.6 hPa 0 mm - 133 W/m² -
1777419755 12.78° C 72% 1022.7 hPa 0 mm - 126 W/m² -
1777419452 12.78° C 70% 1022.7 hPa 0 mm - 121 W/m² -
1777419151 13.33° C 70% 1022.7 hPa 0 mm - 109 W/m² -
1777418846 12.78° C 71% 1022.7 hPa 0 mm - 93 W/m² -
1777418543 12.78° C 70% 1022.6 hPa 0 mm - 103 W/m² -
1777418240 12.78° C 71% 1022.6 hPa 0 mm - 104 W/m² -
1777417935 12.78° C 70% 1022.7 hPa 0 mm - 99 W/m² -
1777417631 12.78° C 71% 1022.6 hPa 0 mm - 105 W/m² -
1777417327 12.78° C 72% 1022.7 hPa 0 mm - 143 W/m² -
1777417024 12.78° C 72% 1022.7 hPa 0 mm - 177 W/m² -
1777416719 12.78° C 71% 1022.4 hPa 0 mm - 241 W/m² -

* Rain latest hour (hover to see other rain measurements)
** Current wind speed in m/s (hover to see current wind gust speed)